#timestamp,LO_Frequency,Hit,StdDev 
1643698815.1,286047002.0,N
1643698835.8,286047001.9,N
1643698855.7,286047002.3,N
1643698875.5,286047011.9,Y
1643698895.3,286047002.4,P
1643698915.2,286047002.3,P
1643698935.0,286047002.2,P
1643698935.9,286047002.2,Y
1643698955.7,286047001.0,P
1643698975.6,286046998.2,P
1643698995.4,286047001.0,N
1643699015.2,286047001.1,N
1643699035.1,286046998.7,N
1643699036.0,286046998.7,N
1643699055.8,286046999.5,N
1643699075.6,286046998.2,N
1643699095.5,286046999.8,N
1643699115.3,286047000.0,N
1643699135.1,286047000.6,N
1643699155.9,286047000.0,N
1643699175.7,286047002.2,N
1643699195.5,286047001.5,N
1643699215.4,286047000.4,N
1643699235.2,286047000.5,N
1643699255.0,286047000.4,N
1643699255.9,286047000.4,N
1643699275.8,286046999.7,N
1643699295.6,286047002.2,N
1643699315.4,286047002.3,N
1643699335.3,286047002.7,N
1643699355.1,286047001.8,N
1643699375.8,286047003.9,Y
1643699395.7,286047003.9,P
1643699415.5,286047004.2,N
1643699435.3,286047003.3,N
1643699455.2,286047003.1,N
1643699475.0,286047005.7,Y
1643699475.9,286047005.7,P
1643699495.7,286047003.9,N
1643699515.6,286047004.2,P
1643699535.4,286047003.9,Y
1643699555.2,286046998.3,P
1643699575.1,286046998.9,N
1643699576.0,286046998.9,N
1643699595.8,286046998.9,N
1643699615.6,286046996.5,N
1643699635.5,286046999.1,N
1643699655.3,286047001.0,N
1643699675.1,286047001.2,N
1643699695.9,286046998.1,N
1643699715.7,286047000.7,N
1643699735.5,286046999.9,N
1643699755.4,286047000.5,N
1643699775.2,286047000.9,N
1643699795.0,286047000.4,N
1643699795.9,286047000.4,N
1643699815.8,286047002.4,N
1643699835.6,286047001.8,N
1643699855.4,286047003.8,N
1643699875.3,286047001.4,N
1643699895.1,286047003.1,N
1643699915.8,286047005.7,N
1643699935.7,286047004.7,N
1643699955.5,286047007.5,Y
1643699975.3,286047007.6,P
1643699995.2,286047006.7,N
1643700015.9,286047007.5,N
1643700035.7,286047004.8,N
1643700055.6,286047005.1,N
1643700075.4,286047007.0,Y
1643700095.2,286047000.1,P
1643700115.1,286047001.6,N
1643700116.0,286047001.6,N
1643700135.8,286047002.6,N
1643700155.6,286047000.3,N
1643700175.5,286047000.4,N
1643700195.3,286047000.0,N
1643700215.1,286047000.1,N
1643700235.9,286047000.3,N
1643700255.7,286047002.0,N
1643700275.5,286047002.3,N
1643700295.4,286047002.4,N
1643700315.2,286047002.6,N
1643700335.0,286047001.5,N
1643700335.9,286047001.5,N
1643700355.8,286047001.5,N
1643700375.6,286047004.2,Y
1643700395.4,286047002.5,P
1643700415.3,286047001.4,N
1643700435.1,286047001.4,N
1643700436.0,286047001.4,N
1643700455.8,286047001.7,Y
1643700475.7,286047000.2,P
1643700495.5,286047000.6,N
1643700515.3,286047002.8,P
1643700535.2,286047002.8,N
1643700555.9,286046999.7,N
1643700575.7,286047002.4,N
1643700595.6,286047000.2,N
1643700615.4,286047002.3,N
1643700635.2,286047001.6,N
1643700655.1,286047004.4,Y
1643700656.0,286047004.4,P
1643700675.8,286047002.4,N
1643700695.6,286047001.4,N
1643700715.5,286047001.9,N
1643700735.3,286046999.7,N
1643700755.1,286047002.3,N
1643700775.9,286047000.4,N
1643700795.7,286047000.9,N
1643700815.5,286047002.4,N
1643700835.4,286047002.6,N
1643700855.2,286047001.3,N
1643700875.0,286047004.1,Y
1643700875.9,286047004.1,P
1643700895.8,286047002.8,N
1643700915.6,286047000.4,N
1643700935.4,286047002.2,N
1643700955.3,286046999.8,N
1643700975.1,286047002.7,N
1643700976.0,286047002.7,N
1643700995.8,286046999.7,N
1643701015.7,286047002.5,N
1643701035.5,286047002.5,N
1643701055.3,286047001.9,N
1643701075.2,286047004.0,Y
1643701095.9,286047002.0,P
1643701115.7,286047002.2,P
1643701135.6,286047003.6,P
1643701185.4,286047001.7,E
1643701195.3,286046999.8,N
1643701215.2,286047002.0,P
1643701235.0,286047002.5,N
1643701235.9,286047002.5,N
1643701255.7,286047002.2,N
1643701275.6,286047002.6,N
1643701295.4,286047002.6,N
1643701315.2,286047001.5,N
1643701335.1,286047001.5,N
1643701336.0,286047001.5,N
1643701355.8,286047003.9,Y
1643701375.6,286047002.6,P
1643701395.5,286047003.3,P
1643701415.3,286047004.2,P
1643701435.1,286047003.7,Y
1643701455.9,286047002.4,P
1643701475.7,286047001.2,P
1643701495.5,286046999.0,N
1643701515.4,286046998.8,N
1643701535.2,286046998.9,N
1643701555.0,286047001.2,N
1643701555.9,286047001.2,N
1643701575.8,286047000.7,N
1643701595.6,286047000.4,N
1643701615.4,286046998.7,N
1643701635.3,286046998.6,N
1643701655.1,286046998.2,N
1643701675.8,286046998.7,N
1643701695.7,286047000.8,N
1643701715.5,286047000.8,N
1643701735.3,286047000.5,N
1643701755.2,286047000.2,N
1643701775.9,286047004.3,Y
1643701795.7,286047001.9,P
1643701815.6,286047001.5,N
1643701835.4,286047001.7,N
1643701855.2,286047003.9,Y
1643701875.1,286047001.7,P
1643701876.0,286047001.7,P
1643701895.8,286047004.1,P
1643701915.6,286047003.5,Y
1643701935.5,286047004.3,P
1643701955.3,286047004.2,P
1643701975.1,286047005.6,P
1643701995.9,286047003.7,Y
1643702015.7,286046999.6,P
1643702035.5,286046997.2,N
1643702055.4,286046996.5,N
1643702075.2,286046998.3,N
1643702095.0,286046999.0,N
1643702095.9,286046999.0,N
1643702115.8,286046996.6,N
1643702135.6,286046999.2,N
1643702155.4,286046997.2,N
1643702175.3,286046999.6,N
1643702195.1,286046996.9,N
1643702196.0,286046996.9,N
1643702215.8,286046999.2,N
1643702235.7,286046999.1,N
1643702255.5,286046998.8,N
1643702275.3,286047001.2,N
1643702295.2,286046998.3,N
1643702315.9,286046998.7,N
1643702335.7,286047000.9,N
1643702355.6,286046998.2,N
1643702375.4,286046998.8,N
1643702395.2,286046998.4,N
